| time (UTC) | temp C | wind direction | speed KPH | gust KPH | rain 1hr cm | rain 24hr cm | rain mn cm | humidity % | barometer mb |
| 20260504234605 | 17 | 285 | 0.0 | 0.0 | 0.00 | 0.00 | 0.00 | 39 | 1007.6 |
| 20260504233047 | 17 | 355 | 0.0 | 6.4 | 0.00 | 0.00 | 0.00 | 38 | 1007.7 |
| 20260504232037 | 17 | 298 | 1.6 | 16.1 | 0.00 | 0.00 | 0.00 | 38 | 1007.7 |
| 20260504231530 | 18 | 294 | 1.6 | 12.9 | 0.00 | 0.00 | 0.00 | 37 | 1007.7 |
| 20260504231023 | 18 | 305 | 1.6 | 14.5 | 0.00 | 0.00 | 0.00 | 33 | 1007.5 |
| 20260504230518 | 18 | 68 | 1.6 | 14.5 | 0.00 | 0.00 | 0.00 | 32 | 1007.4 |
| 20260504230012 | 18 | 5 | 0.0 | 6.4 | 0.00 | 0.00 | 0.00 | 31 | 1007.4 |
| 20260504225507 | 18 | 33 | 0.0 | 1.6 | 0.00 | 0.00 | 0.00 | 30 | 1007.5 |
| 20260504225001 | 18 | 345 | 0.0 | 1.6 | 0.00 | 0.00 | 0.00 | 30 | 1007.3 |
| 20260504224455 | 18 | 332 | 0.0 | 3.2 | 0.00 | 0.00 | 0.00 | 30 | 1007.1 |
| 20260504223947 | 19 | 346 | 0.0 | 3.2 | 0.00 | 0.00 | 0.00 | 30 | 1007.1 |
| 20260504223442 | 19 | 296 | 0.0 | 1.6 | 0.00 | 0.00 | 0.00 | 30 | 1007.0 |
| 20260504222936 | 19 | 55 | 0.0 | 1.6 | 0.00 | 0.00 | 0.00 | 29 | 1007.0 |
| 20260504222430 | 20 | 344 | 0.0 | 3.2 | 0.00 | 0.00 | 0.00 | 29 | 1007.0 |
| 20260504221924 | 20 | 75 | 1.6 | 12.9 | 0.00 | 0.00 | 0.00 | 28 | 1006.7 |
| 20260504221418 | 20 | 60 | 1.6 | 12.9 | 0.00 | 0.00 | 0.00 | 28 | 1006.6 |
| 20260504220911 | 20 | 259 | 0.0 | 6.4 | 0.00 | 0.00 | 0.00 | 28 | 1006.4 |
| 20260504220405 | 21 | 60 | 1.6 | 16.1 | 0.00 | 0.00 | 0.00 | 27 | 1006.3 |
| 20260504215859 | 21 | 327 | 3.2 | 16.1 | 0.00 | 0.00 | 0.00 | 28 | 1006.1 |
| 20260504214849 | 20 | 14 | 4.8 | 17.7 | 0.00 | 0.00 | 0.00 | 29 | 1006.1 |
| 20260504214346 | 20 | 42 | 3.2 | 17.7 | 0.00 | 0.00 | 0.00 | 30 | 1006.2 |
| 20260504212846 | 19 | 328 | 1.6 | 27.4 | 0.00 | 0.00 | 0.00 | 28 | 1006.4 |
| 20260504212344 | 20 | 321 | 0.0 | 9.7 | 0.00 | 0.00 | 0.00 | 27 | 1006.6 |
| 20260504211843 | 20 | 130 | 0.0 | 8.0 | 0.00 | 0.00 | 0.00 | 25 | 1006.7 |
| 20260504211340 | 20 | 340 | 0.0 | 3.2 | 0.00 | 0.00 | 0.00 | 25 | 1006.6 |
| 20260504210838 | 20 | 73 | 0.0 | 3.2 | 0.00 | 0.00 | 0.00 | 24 | 1006.7 |
| 20260504210338 | 20 | 127 | 0.0 | 3.2 | 0.00 | 0.00 | 0.00 | 25 | 1006.8 |
| 20260504205840 | 20 | 126 | 0.0 | 3.2 | 0.00 | 0.00 | 0.00 | 24 | 1006.8 |
| 20260504205335 | 20 | 215 | 1.6 | 9.7 | 0.00 | 0.00 | 0.00 | 24 | 1006.9 |
| 20260504204834 | 20 | 215 | 1.6 | 16.1 | 0.00 | 0.00 | 0.00 | 25 | 1007.0 |
| 20260504204331 | 20 | 327 | 0.0 | 16.1 | 0.00 | 0.00 | 0.00 | 24 | 1007.3 |
| 20260504203331 | 20 | 294 | 1.6 | 20.9 | 0.00 | 0.00 | 0.00 | 24 | 1006.9 |
| 20260504202833 | 20 | 251 | 1.6 | 20.9 | 0.00 | 0.00 | 0.00 | 24 | 1006.7 |
| 20260504202331 | 20 | 258 | 3.2 | 22.5 | 0.00 | 0.00 | 0.00 | 23 | 1006.4 |
| 20260504201330 | 21 | 252 | 1.6 | 16.1 | 0.00 | 0.00 | 0.00 | 23 | 1006.6 |
| 20260504200830 | 21 | 189 | 0.0 | 6.4 | 0.00 | 0.00 | 0.00 | 21 | 1006.4 |
| 20260504195817 | 21 | 227 | 4.8 | 29.0 | 0.00 | 0.00 | 0.00 | 20 | 1006.3 |
| 20260504195310 | 22 | 254 | 1.6 | 29.0 | 0.00 | 0.00 | 0.00 | 20 | 1006.3 |
| 20260504194805 | 23 | 246 | 0.0 | 6.4 | 0.00 | 0.00 | 0.00 | 19 | 1006.4 |
| 20260504194258 | 23 | 227 | 0.0 | 1.6 | 0.00 | 0.00 | 0.00 | 17 | 1006.6 |
| 20260504193752 | 23 | 325 | 0.0 | 0.0 | 0.00 | 0.00 | 0.00 | 16 | 1006.4 |
| 20260504193246 | 23 | 325 | 0.0 | 0.0 | 0.00 | 0.00 | 0.00 | 17 | 1006.3 |
| 20260504192233 | 23 | 259 | 0.0 | 4.8 | 0.00 | 0.00 | 0.00 | 17 | 1006.3 |
| 20260504191728 | 23 | 285 | 0.0 | 4.8 | 0.00 | 0.00 | 0.00 | 16 | 1006.3 |
| 20260504191222 | 23 | 306 | 0.0 | 1.6 | 0.00 | 0.00 | 0.00 | 16 | 1006.3 |
| 20260504190716 | 24 | 263 | 0.0 | 1.6 | 0.00 | 0.00 | 0.00 | 17 | 1006.2 |
| 20260504190211 | 23 | 244 | 0.0 | 1.6 | 0.00 | 0.00 | 0.00 | 17 | 1006.3 |
| 20260504185712 | 23 | 271 | 0.0 | 1.6 | 0.00 | 0.00 | 0.00 | 17 | 1006.3 |
| 20260504184710 | 22 | 245 | 0.0 | 3.2 | 0.00 | 0.00 | 0.00 | 18 | 1006.3 |
| 20260504184209 | 22 | 344 | 0.0 | 9.7 | 0.00 | 0.00 | 0.00 | 18 | 1006.3 |
| 20260504183710 | 22 | 355 | 1.6 | 12.9 | 0.00 | 0.00 | 0.00 | 19 | 1006.4 |
| 20260504183207 | 22 | 19 | 3.2 | 12.9 | 0.00 | 0.00 | 0.00 | 19 | 1006.4 |
| 20260504182708 | 22 | 319 | 3.2 | 14.5 | 0.00 | 0.00 | 0.00 | 19 | 1006.6 |
| 20260504181209 | 23 | 9 | 1.6 | 12.9 | 0.00 | 0.00 | 0.00 | 20 | 1006.6 |
| 20260504180708 | 23 | 292 | 3.2 | 14.5 | 0.00 | 0.00 | 0.00 | 21 | 1006.8 |
| 20260504180208 | 23 | 277 | 3.2 | 14.5 | 0.00 | 0.00 | 0.00 | 20 | 1006.8 |
| 20260504175704 | 23 | 0 | 3.2 | 14.5 | 0.00 | 0.00 | 0.00 | 21 | 1006.8 |
| 20260504175204 | 23 | 221 | 1.6 | 14.5 | 0.00 | 0.00 | 0.00 | 21 | 1006.9 |
| 20260504174204 | 22 | 283 | 4.8 | 14.5 | 0.00 | 0.00 | 0.00 | 22 | 1007.1 |
| 20260504173703 | 22 | 355 | 3.2 | 14.5 | 0.00 | 0.00 | 0.00 | 22 | 1007.3 |
| 20260504173203 | 22 | 5 | 0.0 | 6.4 | 0.00 | 0.00 | 0.00 | 22 | 1007.3 |
| 20260504172704 | 22 | 324 | 0.0 | 4.8 | 0.00 | 0.00 | 0.00 | 22 | 1007.3 |
| 20260504171705 | 22 | 127 | 1.6 | 11.3 | 0.00 | 0.00 | 0.00 | 22 | 1007.4 |
| 20260504171204 | 22 | 336 | 3.2 | 11.3 | 0.00 | 0.00 | 0.00 | 23 | 1007.4 |
| 20260504170703 | 22 | 348 | 1.6 | 11.3 | 0.00 | 0.00 | 0.00 | 23 | 1007.5 |
| 20260504170204 | 22 | 355 | 1.6 | 11.3 | 0.00 | 0.00 | 0.00 | 24 | 1007.5 |
| 20260504160122 | 19 | 322 | 0.0 | 6.4 | 0.00 | 0.00 | 0.00 | 28 | 1008.1 |
| 20260504151022 | 16 | 254 | 0.0 | 1.6 | 0.00 | 0.00 | 0.00 | 31 | 1008.3 |
| 20260504150517 | 15 | 262 | 0.0 | 1.6 | 0.00 | 0.00 | 0.00 | 32 | 1008.3 |
| 20260504140911 | 12 | 223 | 0.0 | 0.0 | 0.00 | 0.00 | 0.00 | 40 | 1008.4 |
| 20260504140405 | 12 | 216 | 0.0 | 0.0 | 0.00 | 0.00 | 0.00 | 43 | 1008.4 |
| 20260504130800 | 8 | 343 | 0.0 | 0.0 | 0.00 | 0.00 | 0.00 | 53 | 1008.5 |
| 20260504120140 | 6 | 343 | 0.0 | 0.0 | 0.00 | 0.00 | 0.00 | 56 | 1008.0 |
| 20260504110540 | 6 | 343 | 0.0 | 0.0 | 0.00 | 0.00 | 0.00 | 55 | 1008.3 |
| 20260504100528 | 7 | 343 | 0.0 | 0.0 | 0.00 | 0.00 | 0.00 | 49 | 1008.7 |
| 20260504082005 | 10 | 343 | 0.0 | 0.0 | 0.00 | 0.00 | 0.00 | 44 | 1009.4 |
| 20260504081505 | 10 | 343 | 0.0 | 0.0 | 0.00 | 0.00 | 0.00 | 43 | 1009.4 |
| 20260504081004 | 10 | 343 | 0.0 | 0.0 | 0.00 | 0.00 | 0.00 | 43 | 1009.4 |
| 20260504080504 | 10 | 343 | 0.0 | 0.0 | 0.00 | 0.00 | 0.00 | 43 | 1009.4 |
| 20260504045838 | 16 | 261 | 0.0 | 0.0 | 0.00 | 0.00 | 0.00 | 29 | 1009.1 |
| 20260504045339 | 16 | 263 | 0.0 | 0.0 | 0.00 | 0.00 | 0.00 | 29 | 1009.1 |
| 20260504044337 | 16 | 261 | 0.0 | 0.0 | 0.00 | 0.00 | 0.00 | 29 | 1009.2 |
| 20260504043838 | 16 | 261 | 0.0 | 0.0 | 0.00 | 0.00 | 0.00 | 29 | 1009.4 |
| 20260504043336 | 16 | 262 | 0.0 | 0.0 | 0.00 | 0.00 | 0.00 | 29 | 1009.4 |
| 20260504042837 | 16 | 264 | 0.0 | 0.0 | 0.00 | 0.00 | 0.00 | 29 | 1009.5 |
| 20260504042336 | 16 | 264 | 0.0 | 0.0 | 0.00 | 0.00 | 0.00 | 28 | 1009.5 |
| 20260504041831 | 17 | 264 | 0.0 | 0.0 | 0.00 | 0.00 | 0.00 | 28 | 1009.5 |
| 20260504040831 | 17 | 264 | 0.0 | 0.0 | 0.00 | 0.00 | 0.00 | 28 | 1009.6 |
| 20260504040330 | 17 | 265 | 0.0 | 0.0 | 0.00 | 0.00 | 0.00 | 28 | 1009.6 |
| 20260504035830 | 17 | 265 | 0.0 | 0.0 | 0.00 | 0.00 | 0.00 | 27 | 1009.7 |
| 20260504035332 | 17 | 265 | 0.0 | 0.0 | 0.00 | 0.00 | 0.00 | 28 | 1009.7 |
| 20260504034831 | 17 | 265 | 0.0 | 0.0 | 0.00 | 0.00 | 0.00 | 28 | 1009.7 |
| 20260504034332 | 17 | 267 | 0.0 | 0.0 | 0.00 | 0.00 | 0.00 | 28 | 1009.7 |
| 20260504033832 | 17 | 267 | 0.0 | 0.0 | 0.00 | 0.00 | 0.00 | 28 | 1009.8 |
| 20260504033330 | 17 | 268 | 0.0 | 0.0 | 0.00 | 0.00 | 0.00 | 28 | 1009.8 |
| 20260504032831 | 17 | 270 | 0.0 | 0.0 | 0.00 | 0.00 | 0.00 | 28 | 1009.8 |
| 20260504032330 | 17 | 270 | 0.0 | 0.0 | 0.00 | 0.00 | 0.00 | 28 | 1009.8 |
| 20260504031831 | 17 | 270 | 0.0 | 0.0 | 0.00 | 0.00 | 0.00 | 28 | 1009.8 |
| 20260504031332 | 17 | 270 | 0.0 | 0.0 | 0.00 | 0.00 | 0.00 | 27 | 1009.8 |
| 20260504030830 | 18 | 270 | 0.0 | 0.0 | 0.00 | 0.00 | 0.00 | 27 | 1009.8 |
| 20260504030330 | 18 | 270 | 0.0 | 0.0 | 0.00 | 0.00 | 0.00 | 27 | 1009.8 |
| 20260504025831 | 18 | 270 | 0.0 | 0.0 | 0.00 | 0.00 | 0.00 | 26 | 1009.8 |
| 20260504025331 | 18 | 270 | 0.0 | 0.0 | 0.00 | 0.00 | 0.00 | 26 | 1009.8 |
| 20260504024330 | 18 | 270 | 0.0 | 0.0 | 0.00 | 0.00 | 0.00 | 24 | 1009.7 |
| 20260504023830 | 19 | 270 | 0.0 | 0.0 | 0.00 | 0.00 | 0.00 | 24 | 1009.6 |
| 20260504023331 | 19 | 270 | 0.0 | 0.0 | 0.00 | 0.00 | 0.00 | 23 | 1009.7 |
| 20260504022831 | 19 | 270 | 0.0 | 0.0 | 0.00 | 0.00 | 0.00 | 23 | 1009.6 |
| 20260504022330 | 19 | 270 | 0.0 | 0.0 | 0.00 | 0.00 | 0.00 | 23 | 1009.7 |
| 20260504021832 | 20 | 270 | 0.0 | 0.0 | 0.00 | 0.00 | 0.00 | 22 | 1009.7 |
| 20260504021328 | 20 | 336 | 0.0 | 0.0 | 0.00 | 0.00 | 0.00 | 21 | 1009.6 |
| 20260504020826 | 20 | 346 | 0.0 | 3.2 | 0.00 | 0.00 | 0.00 | 21 | 1009.6 |
| 20260504020324 | 20 | 314 | 1.6 | 14.5 | 0.00 | 0.00 | 0.00 | 21 | 1009.4 |
| 20260504015824 | 20 | 41 | 1.6 | 14.5 | 0.00 | 0.00 | 0.00 | 22 | 1009.5 |
| 20260504015325 | 20 | 323 | 0.0 | 8.0 | 0.00 | 0.00 | 0.00 | 21 | 1009.8 |
| 20260504014824 | 20 | 304 | 1.6 | 17.7 | 0.00 | 0.00 | 0.00 | 21 | 1009.6 |
| 20260504014322 | 20 | 55 | 1.6 | 17.7 | 0.00 | 0.00 | 0.00 | 22 | 1009.5 |
| 20260504013820 | 19 | 11 | 0.0 | 16.1 | 0.00 | 0.00 | 0.00 | 21 | 1009.4 |
| 20260504013320 | 19 | 350 | 0.0 | 14.5 | 0.00 | 0.00 | 0.00 | 21 | 1009.6 |
| 20260504012821 | 19 | 329 | 0.0 | 0.0 | 0.00 | 0.00 | 0.00 | 22 | 1009.8 |
| 20260504012320 | 19 | 344 | 0.0 | 1.6 | 0.00 | 0.00 | 0.00 | 22 | 1009.8 |
| 20260504011820 | 19 | 30 | 0.0 | 1.6 | 0.00 | 0.00 | 0.00 | 23 | 1009.8 |
| 20260504011323 | 19 | 100 | 0.0 | 0.0 | 0.00 | 0.00 | 0.00 | 25 | 1009.5 |
| 20260504010821 | 19 | 342 | 0.0 | 0.0 | 0.00 | 0.00 | 0.00 | 24 | 1010.3 |
| 20260504005816 | 20 | 44 | 0.0 | 4.8 | 0.00 | 0.00 | 0.00 | 24 | 1010.1 |
| 20260504005314 | 20 | 92 | 0.0 | 4.8 | 0.00 | 0.00 | 0.00 | 24 | 1010.1 |
| 20260504004813 | 20 | 346 | 0.0 | 3.2 | 0.00 | 0.00 | 0.00 | 24 | 1010.3 |
| 20260504004311 | 20 | 329 | 0.0 | 1.6 | 0.00 | 0.00 | 0.00 | 24 | 1010.3 |
| 20260504003808 | 20 | 0 | 0.0 | 4.8 | 0.00 | 0.00 | 0.00 | 24 | 1010.3 |
| 20260504003306 | 20 | 29 | 0.0 | 9.7 | 0.00 | 0.00 | 0.00 | 24 | 1010.5 |
| 20260504002806 | 20 | 0 | 0.0 | 9.7 | 0.00 | 0.00 | 0.00 | 24 | 1010.6 |
| 20260504002306 | 20 | 90 | 0.0 | 0.0 | 0.00 | 0.00 | 0.00 | 23 | 1010.6 |
| 20260504001806 | 20 | 90 | 0.0 | 0.0 | 0.00 | 0.00 | 0.00 | 24 | 1010.5 |
| 20260504001307 | 20 | 90 | 0.0 | 0.0 | 0.00 | 0.00 | 0.00 | 23 | 1010.4 |
| 20260504000759 | 20 | 90 | 0.0 | 0.0 | 0.00 | 0.00 | 0.00 | 23 | 1010.3 |
| 20260504000254 | 20 | 90 | 0.0 | 0.0 | 0.00 | 0.00 | 0.00 | 23 | 1010.2 |